SCP
0 0 0 0 0 0 0 0 1 0 0 1 1 1 1 1 1 1 1 1 0 0 0 0 1 0 0 0 0 0 0 0 1 1 1 0 0 0 0 1 1 1 1
0 0 0 0 0 1 0 0 0 0 1 1 1 1 1 1 1 1 1 0 0 0 0 1 1 1 0 0 0 0 0 0 1 1 1 0 0 0 0 1 1 1 1
0 0 0 1 1 1 1 1 0 1 1 1 0 1 1 1 1 0 0 0 0 0 0 1 1 1 1 0 0 0 0 0 1 1 1 0 0 0 0 0 0 0 1
0 0 0 1 1 1 1 1 1 1 1 0 0 0 0 1 0 0 0 0 0 0 0 1 1 0 0 0 0 0 0 0 0 0 0 0 0 0 0 0 0 0 0
0 0 0 1 1 1 1 1 1 1 1 0 0 0 0 1 0 0 0 0 0 0 0 0 0 0 0 0 0 0 0 0 0 0 0 0 0 0 0 0 0 0 0
0 0 1 1 1 1 1 1 1 1 1 1 1 0 0 0 0 0 0 0 0 0 0 0 0 0 0 0 0 0 0 0 0 0 0 0 0 0 0 0 0 0 0
0 0 1 1 1 1 1 0 0 0 1 1 1 1 0 0 0 0 0 0 0 0 0 0 0 0 0 0 0 0 0 0 0 0 0 0 0 0 1 1 1 0 0
0 0 1 1 1 1 1 0 0 0 0 0 1 1 1 1 0 0 0 0 1 1 0 0 0 0 0 0 0 0 1 0 0 0 0 0 0 0 1 1 1 1 1
0 0 0 0 1 1 1 0 0 0 0 0 0 0 0 1 1 0 0 1 1 1 0 0 0 0 0 0 1 1 1 1 0 0 0 0 0 0 1 1 1 1 1
0 0 0 0 0 0 0 0 0 0 0 0 0 0 0 0 0 0 0 0 0 0 0 0 0 0 0 0 1 1 1 1 0 0 0 0 0 0 0 1 1 1 1
0 0 0 0 0 0 0 0 0 0 0 0 0 0 0 0 0 0 0 0 0 0 0 0 0 0 0 0 1 1 1 0 0 0 0 0 0 0 0 0 1 1 1
0 0 0 0 0 0 0 0 0 0 0 0 0 0 0 0 0 0 0 0 0 0 0 0 0 0 0 0 0 0 0 0 0 0 0 0 0 0 0 0 1 1 1
0 0 0 0 0 0 0 0 0 0 0 0 0 0 0 0 0 0 0 1 0 0 0 0 0 0 0 0 0 0 0 0 0 0 0 0 0 0 0 0 0 0 1
0 0 0 0 0 0 0 0 0 0 0 0 0 0 0 0 0 0 0 0 0 0 0 0 0 0 0 0 0 0 0 0 0 0 0 0 0 0 0 0 0 0 1
0 0 0 0 0 0 0 0 0 0 0 0 0 0 0 0 0 0 0 0 0 0 0 0 0 0 0 0 0 0 0 0 0 0 0 0 0 0 0 0 0 1 1
0 0 0 0 0 0 0 0 0 0 0 0 0 0 0 0 0 0 0 0 0 0 0 0 0 0 0 0 0 0 0 0 0 0 0 0 0 0 0 0 0 0 0
0 0 0 0 0 0 0 0 0 0 0 0 0 0 0 0 0 0 0 0 0 0 0 0 0 0 0 0 0 0 0 0 0 0 0 0 0 0 1 1 0 0 0
0 0 0 0 0 0 0 0 0 0 0 0 0 0 0 0 0 0 0 0 0 0 0 0 0 0 0 0 0 0 0 0 0 0 0 0 0 0 0 1 1 0 0
1 1 1 0 0 0 0 0 0 0 0 0 0 0 0 0 0 0 0 0 0 0 0 0 0 0 0 0 0 0 0 0 0 0 0 0 0 0 0 1 1 1 1
1 1 1 1 0 0 0 0 0 0 0 0 0 0 0 0 0 0 0 0 0 0 0 0 0 0 0 0 0 0 0 0 0 0 0 0 0 0 0 0 1 1 1
1 1 1 1 1 0 0 0 0 0 0 0 0 0 0 0 0 0 0 0 0 0 0 0 0 0 0 0 0 0 0 0 0 0 0 0 0 0 0 0 0 0 0
1 1 1 1 1 0 0 0 0 0 0 0 0 0 0 0 0 0 0 0 0 0 0 0 0 0 0 0 0 0 0 0 0 0 0 0 0 0 0 0 0 0 0
1 1 1 1 1 1 0 0 0 0 0 0 0 0 0 0 0 0 0 0 0 0 0 0 0 0 0 0 0 0 0 0 0 0 0 0 0 0 0 0 0 0 0
1 1 1 1 1 1 0 0 0 0 0 0 0 0 0 0 0 0 0 0 0 0 0 0 0 0 0 0 0 0 0 0 0 0 0 0 0 0 0 0 0 0 0
1 1 1 1 1 1 1 0 0 0 0 0 0 0 0 0 0 0 0 0 0 0 0 0 0 0 0 0 0 0 0 0 0 0 0 0 0 0 0 0 0 0 0
1 1 1 1 1 1 1 0 0 0 0 0 0 0 0 0 0 0 0 0 0 0 0 0 0 0 0 0 0 0 0 0 0 0 0 0 0 0 0 0 0 0 0
Wind_Speed
1 2 7 8 10 10 10 10 10 11 11 10 10 10 10 10 10 10 10 9 10 10 10 10 10 10 10 10 9 9 9 9 10 10 10 10 9 8 8 8 7 4 7
4 3 8 9 10 10 10 10 10 10 10 10 10 10 10 10 9 9 9 9 9 9 9 9 9 9 9 9 9 9 8 9 10 10 9 9 10 10 9 9 8 5 8
6 4 7 10 10 10 10 9 10 10 10 10 10 10 10 10 9 9 9 9 9 9 9 9 9 9 9 9 9 9 9 9 9 10 9 5 6 10 10 10 10 9 8
7 5 6 10 10 10 9 10 10 10 10 10 10 9 9 9 9 9 9 8 8 9 8 8 8 8 9 9 9 9 9 9 10 10 5 5 5 10 10 10 10 9 8
6 5 6 10 10 10 10 10 10 10 10 10 10 9 9 9 9 9 8 8 8 9 8 8 8 8 8 8 9 9 9 10 11 9 5 4 4 9 11 10 9 9 9
6 5 6 10 10 10 10 10 10 10 9 9 9 9 9 9 9 9 8 8 8 8 8 7 7 7 8 8 8 9 10 10 9 5 4 4 4 9 11 11 10 10 9
6 5 6 10 10 10 9 9 9 9 8 9 9 9 9 9 9 8 8 8 8 8 7 7 6 7 7 8 9 9 10 11 7 5 4 3 5 10 11 11 11 10 10
7 5 5 9 10 9 9 8 8 8 7 8 8 8 8 8 8 8 8 7 7 7 7 6 6 7 7 8 9 9 10 9 7 6 4 3 8 10 10 10 10 11 10
6 5 3 4 5 7 8 8 7 7 6 6 7 7 7 7 7 7 7 7 7 6 6 6 6 6 7 8 9 10 11 11 5 3 5 3 8 10 10 10 10 10 10
5 4 3 3 3 2 3 6 6 6 6 5 5 6 5 5 5 5 5 5 6 6 5 5 5 6 6 7 9 10 10 8 4 4 2 4 10 10 10 10 9 9 9
5 3 3 3 3 2 2 3 3 4 4 4 3 4 4 2 1 1 2 4 4 4 4 4 4 5 5 6 8 9 7 3 4 3 2 7 9 10 10 9 9 9 9
5 4 4 4 4 3 2 2 1 1 1 1 1 1 1 1 0 1 1 2 3 3 3 3 4 4 3 3 5 7 3 3 3 2 3 8 9 9 9 9 9 9 9
6 6 5 5 4 3 1 1 0 0 0 0 0 1 1 1 1 1 1 1 2 3 3 3 4 3 2 2 3 3 3 3 2 2 4 9 9 9 9 9 9 9 9
5 5 5 5 4 3 2 1 1 0 0 0 1 2 2 1 1 1 1 1 1 1 2 2 2 3 3 4 4 4 3 2 2 2 3 8 8 9 9 9 9 9 9
4 4 5 5 4 3 2 1 1 1 1 1 1 2 2 2 2 1 1 1 1 1 2 2 2 3 3 3 4 4 3 3 3 2 2 6 8 9 9 9 9 10 10
5 5 5 5 5 4 3 2 1 1 1 2 2 2 2 2 2 2 2 1 1 1 1 2 3 3 2 3 3 3 3 3 3 2 2 3 6 7 8 9 10 10 10
5 5 5 5 5 5 3 2 2 1 2 2 2 3 3 3 3 3 2 2 1 1 2 3 4 3 3 3 3 3 3 2 2 2 2 2 2 6 8 9 10 10 10
6 5 5 6 5 5 4 3 2 2 2 2 2 2 3 4 3 3 3 2 1 2 2 3 3 3 3 2 2 2 2 2 2 2 1 1 2 3 5 9 9 10 10
7 6 5 5 5 5 4 3 3 2 2 2 2 2 3 3 4 3 2 2 2 3 2 2 2 2 2 1 1 2 2 2 1 2 2 1 1 2 2 5 8 8 9
6 6 6 5 5 4 4 3 3 3 2 2 2 2 3 2 3 3 2 2 3 3 2 2 3 2 1 1 2 3 2 2 2 2 2 1 1 2 2 2 3 4 7
7 7 6 5 4 4 3 3 2 1 1 1 1 2 3 3 3 3 3 2 2 2 2 2 2 3 2 1 3 3 3 3 3 2 1 2 1 1 2 2 2 2 2
8 7 6 6 5 5 3 3 2 2 1 0 1 2 2 3 3 3 3 2 2 2 2 2 2 2 1 1 2 3 2 4 3 3 2 1 1 1 1 1 1 1 2
8 8 8 7 6 5 5 3 3 3 2 2 1 1 1 2 2 2 3 3 2 2 2 2 2 3 1 1 1 3 3 1 2 3 2 2 1 1 1 1 1 1 1
8 8 7 7 6 5 6 5 5 3 2 2 1 1 0 1 2 2 2 3 2 2 2 2 2 2 3 1 1 1 2 3 2 1 3 2 2 1 1 1 1 0 0
7 7 7 7 5 5 6 6 5 3 2 1 1 1 0 0 1 2 2 2 2 2 2 2 2 2 2 2 1 1 2 2 2 3 0 2 3 2 1 1 1 0 0
6 6 6 7 6 5 6 6 6 5 4 3 2 2 1 0 0 1 2 2 2 2 2 2 2 3 2 2 2 1 2 2 1 2 2 1 1 2 2 1 1 0 0
Wind_Direction
126 132 110 102 100 99 96 93 93 93 91 90 88 88 87 87 89 91 89 88 86 86 84 81 79 78 75 74 72 75 78 76 73 71 69 69 71 75 75 78 80 80 92
145 127 112 104 103 102 99 95 94 94 93 91 87 87 88 89 90 94 92 90 88 87 84 81 80 77 74 72 69 72 76 75 70 69 68 64 68 72 76 80 81 82 86
131 124 117 110 105 102 100 97 96 95 94 91 90 89 90 90 91 94 96 94 92 90 87 84 82 80 76 71 70 72 70 74 70 70 71 56 61 69 71 75 76 76 77
131 126 120 115 109 106 103 101 99 98 95 93 90 90 90 90 93 95 96 97 96 94 91 88 84 81 77 72 69 70 65 66 71 74 66 51 54 71 71 71 71 69 70
123 122 124 118 114 109 106 105 102 100 98 97 92 90 90 92 94 96 97 98 98 96 93 91 86 80 77 72 68 69 68 68 75 74 66 57 53 71 70 68 68 67 65
127 126 127 120 117 114 111 108 104 102 100 98 94 91 90 91 94 97 97 96 98 98 95 92 86 81 76 69 72 71 71 75 76 67 60 58 59 72 71 67 64 62 61
130 129 131 125 123 119 116 113 109 105 103 100 95 92 91 93 95 98 99 98 99 98 97 95 86 78 73 70 76 75 77 80 79 69 57 55 68 74 71 67 64 61 59
134 132 135 134 130 125 122 119 115 112 109 103 99 96 92 92 95 97 99 99 99 97 95 91 84 77 74 71 73 78 79 79 82 75 62 58 76 74 70 66 63 61 58
130 131 130 133 132 131 129 125 121 118 116 110 105 101 98 96 100 99 100 100 101 99 94 89 84 79 76 71 71 79 80 78 72 63 72 64 78 75 70 66 62 59 55
134 139 146 141 133 135 134 135 130 125 119 113 113 109 104 99 99 102 97 101 102 101 98 88 77 78 78 72 74 79 78 74 67 58 50 73 78 77 72 67 63 59 54
147 159 159 160 161 167 173 159 137 133 127 112 109 118 100 61 52 77 107 107 106 98 89 78 69 75 73 66 74 76 74 72 73 58 51 79 80 75 71 67 63 61 56
164 182 184 179 181 185 182 126 111 110 102 93 102 108 91 93 20 65 78 99 97 82 62 60 63 71 61 52 63 72 65 70 72 62 70 78 76 73 70 66 62 61 58
174 181 183 177 174 169 143 137 120 94 106 83 103 139 121 82 36 36 31 39 39 52 38 39 48 52 66 75 75 81 82 77 63 52 70 79 74 71 67 65 62 58 57
158 170 170 169 162 162 149 149 151 150 157 152 178 147 131 113 84 71 60 45 43 52 60 54 60 69 71 80 92 96 92 83 66 53 70 80 76 70 66 62 59 58 59
153 154 158 160 161 155 140 153 137 166 166 150 116 126 137 131 125 111 78 56 49 62 78 81 78 79 80 80 90 98 97 92 83 64 48 73 73 68 66 64 60 60 60
164 160 155 151 153 140 138 145 137 152 126 93 91 106 124 125 127 119 98 79 56 64 76 87 92 88 79 80 77 84 95 98 93 78 57 57 68 70 67 64 62 60 59
170 158 148 141 135 129 126 125 111 106 96 81 80 85 96 111 119 117 107 93 71 78 80 76 76 74 73 74 69 78 92 93 100 97 77 49 43 62 67 65 61 58 57
164 153 150 137 130 122 116 110 102 93 91 85 87 86 88 97 109 106 101 93 89 88 85 87 78 73 65 68 66 57 73 87 96 119 96 76 54 49 56 63 59 57 56
163 151 141 136 137 132 120 103 90 86 82 85 84 86 86 89 103 107 100 95 92 83 73 90 75 87 83 65 79 63 53 74 85 110 106 107 87 74 56 63 62 57 54
157 150 146 142 142 132 108 88 72 63 57 65 82 88 91 96 109 107 101 89 91 87 69 75 82 64 76 69 76 59 31 33 51 77 99 110 105 105 81 62 46 44 50
156 154 154 149 152 136 120 117 108 99 55 43 61 91 95 104 111 107 106 98 98 102 109 104 93 69 42 52 69 39 18 23 33 41 58 88 106 120 100 81 54 31 25
165 164 164 162 161 158 152 146 146 143 145 137 60 73 98 110 120 121 122 118 112 107 92 91 98 91 37 54 103 88 29 360 357 16 23 69 81 78 92 104 81 58 32
172 172 172 174 169 167 152 120 96 70 48 38 32 29 52 106 118 122 127 128 124 121 125 123 121 121 115 19 88 131 134 205 309 337 0 20 36 63 61 68 89 69 63
179 173 169 170 170 166 151 146 148 152 170 200 191 188 27 98 117 132 135 135 134 128 129 139 130 129 128 113 12 59 140 153 142 336 338 353 14 39 36 69 86 86 67
174 169 169 166 168 164 160 161 156 162 176 178 155 147 171 26 116 136 144 139 138 136 140 133 123 120 127 139 140 101 76 72 102 132 274 329 352 345 5 35 55 46 12
167 164 165 164 171 169 166 165 164 168 166 159 169 174 199 250 332 151 143 139 140 141 147 144 133 129 132 127 123 121 137 137 155 138 163 234 307 315 344 357 11 349 340